When you browse on this site, cookies collect data to enhance your experience and personalize the content and advertising you see.
Visit our Privacy Policy to learn more. By continuing to use the site, you agree to this use of cookies and data.
  • In Czech Republic
  • List of Countries
  • For 7 days
  • Water Temperature
  • Satellite Maps
  • Weather Map
  • Weather Widgets
  • user-avatar
    Login

    Hourly Weather Rokutow

    Today, 11 December, Tuesday

    Time Temperature Precipitation Wind Pressure Humidity
    00:00 0°C° 0 mm 5 mps 747 mmHg 83%
    01:00 0°C° 0 mm 4 mps 747 mmHg 83%
    02:00 +1°C° 0.1 mm 4 mps 747 mmHg 85%
    03:00 +1°C° 0.1 mm 4 mps 747 mmHg 86%
    04:00 +1°C° 0.1 mm 4 mps 747 mmHg 87%
    05:00 +1°C° 0.3 mm 4 mps 747 mmHg 87%
    06:00 +1°C° 0.3 mm 4 mps 747 mmHg 87%
    07:00 +1°C° 0 mm 3 mps 747 mmHg 89%
    08:00 +1°C° 0.3 mm 3 mps 747 mmHg 88%
    09:00 +1°C° 0.3 mm 3 mps 747 mmHg 88%
    10:00 +2°C° 0.3 mm 3 mps 747 mmHg 88%
    11:00 +2°C° 0.2 mm 3 mps 748 mmHg 88%
    12:00 +2°C° 0.2 mm 3 mps 748 mmHg 88%
    13:00 +2°C° 0.2 mm 3 mps 748 mmHg 88%
    14:00 +2°C° 0.1 mm 3 mps 749 mmHg 89%
    15:00 +2°C° 0.1 mm 3 mps 749 mmHg 90%
    16:00 +2°C° 0.1 mm 3 mps 750 mmHg 91%
    17:00 +1°C° 0.1 mm 3 mps 750 mmHg 91%
    18:00 +1°C° 0.1 mm 3 mps 750 mmHg 92%
    19:00 +1°C° 0.1 mm 3 mps 751 mmHg 93%
    20:00 +1°C° 0.1 mm 3 mps 751 mmHg 93%
    21:00 +1°C° 0.1 mm 3 mps 752 mmHg 93%
    22:00 +2°C° 0.1 mm 2 mps 752 mmHg 94%
    23:00 +1°C° 0.1 mm 3 mps 753 mmHg 94%

    Tomorrow, 12 December, Wednesday

    Time Temperature Precipitation Wind Pressure Humidity
    00:00 0°C° 0.1 mm 3 mps 753 mmHg 94%
    01:00 0°C° 0.1 mm 3 mps 754 mmHg 93%
    02:00 0°C° 0 mm 3 mps 754 mmHg 93%
    03:00 -1°C° 0 mm 3 mps 754 mmHg 92%
    04:00 -1°C° 0 mm 3 mps 755 mmHg 91%
    05:00 -1°C° 0 mm 3 mps 755 mmHg 91%
    06:00 -2°C° 0 mm 3 mps 756 mmHg 90%
    07:00 -2°C° 0 mm 3 mps 756 mmHg 90%
    08:00 -1°C° 0 mm 3 mps 757 mmHg 87%
    09:00 -1°C° 0 mm 3 mps 757 mmHg 85%
    10:00 0°C° 0 mm 3 mps 758 mmHg 83%
    11:00 0°C° 0 mm 3 mps 758 mmHg 82%
    12:00 0°C° 0 mm 3 mps 758 mmHg 81%
    13:00 +2°C° 0 mm 2 mps 758 mmHg 80%
    14:00 +1°C° 0 mm 2 mps 758 mmHg 83%
    15:00 +1°C° 0 mm 2 mps 758 mmHg 87%
    16:00 -1°C° 0 mm 2 mps 758 mmHg 90%
    17:00 -1°C° 0 mm 2 mps 759 mmHg 91%
    18:00 -1°C° 0 mm 2 mps 759 mmHg 92%
    19:00 -1°C° 0 mm 2 mps 759 mmHg 93%
    20:00 -1°C° 0 mm 2 mps 759 mmHg 93%
    21:00 -1°C° 0 mm 2 mps 759 mmHg 94%
    22:00 -2°C° 0 mm 2 mps 759 mmHg 94%
    23:00 -1°C° 0 mm 2 mps 759 mmHg 94%

    Day after tomorrow, 13 December, Thursday

    Time Temperature Precipitation Wind Pressure Humidity
    00:00 -1°C° 0 mm 2 mps 759 mmHg 94%
    01:00 -1°C° 0 mm 2 mps 759 mmHg 94%
    02:00 -1°C° 0 mm 2 mps 759 mmHg 94%
    03:00 -1°C° 0 mm 2 mps 759 mmHg 94%
    04:00 -1°C° 0 mm 2 mps 759 mmHg 94%
    05:00 -1°C° 0 mm 2 mps 759 mmHg 93%
    06:00 -1°C° 0 mm 2 mps 759 mmHg 93%
    07:00 -1°C° 0 mm 3 mps 759 mmHg 93%
    08:00 -1°C° 0 mm 3 mps 759 mmHg 91%
    09:00 -1°C° 0 mm 3 mps 759 mmHg 89%
    10:00 -1°C° 0 mm 3 mps 759 mmHg 88%
    11:00 -1°C° 0 mm 3 mps 759 mmHg 86%
    12:00 0°C° 0 mm 3 mps 759 mmHg 85%
    13:00 +1°C° 0 mm 2 mps 759 mmHg 83%
    14:00 +1°C° 0 mm 2 mps 759 mmHg 85%
    15:00 -1°C° 0 mm 2 mps 759 mmHg 86%
    16:00 -1°C° 0 mm 2 mps 759 mmHg 88%
    17:00 -1°C° 0 mm 2 mps 759 mmHg 88%
    18:00 -1°C° 0 mm 2 mps 759 mmHg 88%
    19:00 -1°C° 0 mm 2 mps 759 mmHg 88%
    20:00 -1°C° 0 mm 2 mps 759 mmHg 88%
    21:00 -1°C° 0 mm 2 mps 759 mmHg 88%
    22:00 -1°C° 0 mm 2 mps 760 mmHg 87%
    23:00 -1°C° 0 mm 2 mps 760 mmHg 87%

    14 December, Friday

    Time Temperature Precipitation Wind Pressure Humidity
    00:00 -1°C° 0 mm 2 mps 760 mmHg 88%
    01:00 -2°C° 0 mm 2 mps 760 mmHg 88%
    02:00 -2°C° 0 mm 2 mps 760 mmHg 89%
    03:00 -2°C° 0 mm 2 mps 760 mmHg 90%
    04:00 -2°C° 0 mm 2 mps 760 mmHg 91%
    05:00 -3°C° 0 mm 2 mps 760 mmHg 92%
    06:00 -3°C° 0 mm 2 mps 760 mmHg 92%
    07:00 -3°C° 0 mm 2 mps 760 mmHg 92%
    08:00 -3°C° 0 mm 2 mps 760 mmHg 90%
    09:00 -2°C° 0 mm 2 mps 761 mmHg 87%
    10:00 -2°C° 0 mm 2 mps 761 mmHg 85%
    11:00 -2°C° 0 mm 2 mps 761 mmHg 82%
    12:00 -1°C° 0 mm 3 mps 761 mmHg 79%
    13:00 -1°C° 0 mm 3 mps 761 mmHg 77%
    14:00 -2°C° 0 mm 2 mps 761 mmHg 79%
    15:00 -2°C° 0 mm 2 mps 761 mmHg 81%
    16:00 -2°C° 0 mm 2 mps 761 mmHg 83%
    17:00 -2°C° 0 mm 2 mps 761 mmHg 84%
    18:00 -2°C° 0 mm 2 mps 762 mmHg 84%
    19:00 -2°C° 0 mm 2 mps 762 mmHg 85%
    20:00 -2°C° 0 mm 2 mps 762 mmHg 86%
    21:00 -2°C° 0 mm 2 mps 762 mmHg 87%
    22:00 -2°C° 0 mm 2 mps 762 mmHg 88%
    23:00 -2°C° 0 mm 2 mps 762 mmHg 90%

    15 December, Saturday

    Time Temperature Precipitation Wind Pressure Humidity
    00:00 -2°C° 0 mm 2 mps 762 mmHg 91%
    01:00 -2°C° 0 mm 2 mps 762 mmHg 92%
    02:00 -2°C° 0 mm 2 mps 762 mmHg 91%
    03:00 -2°C° 0 mm 2 mps 762 mmHg 91%
    04:00 -2°C° 0 mm 3 mps 762 mmHg 90%
    05:00 -2°C° 0 mm 2 mps 762 mmHg 89%
    06:00 -2°C° 0 mm 2 mps 763 mmHg 89%
    07:00 -2°C° 0 mm 2 mps 763 mmHg 88%
    08:00 -1°C° 0 mm 2 mps 763 mmHg 87%
    09:00 -1°C° 0 mm 3 mps 763 mmHg 86%
    10:00 -1°C° 0 mm 3 mps 764 mmHg 85%
    11:00 -1°C° 0 mm 3 mps 764 mmHg 82%
    12:00 -1°C° 0 mm 3 mps 764 mmHg 80%
    13:00 0°C° 0 mm 3 mps 764 mmHg 77%
    14:00 -1°C° 0 mm 3 mps 764 mmHg 79%
    15:00 -1°C° 0 mm 2 mps 764 mmHg 82%
    16:00 -1°C° 0 mm 2 mps 764 mmHg 84%
    17:00 -2°C° 0 mm 2 mps 765 mmHg 86%
    18:00 -2°C° 0 mm 2 mps 765 mmHg 88%
    19:00 -2°C° 0 mm 2 mps 765 mmHg 89%
    20:00 -2°C° 0 mm 2 mps 765 mmHg 90%
    21:00 -2°C° 0 mm 2 mps 765 mmHg 91%
    22:00 -2°C° 0 mm 2 mps 765 mmHg 92%
    23:00 -2°C° 0 mm 2 mps 765 mmHg 92%

    16 December, Sunday

    Time Temperature Precipitation Wind Pressure Humidity
    00:00 -3°C° 0 mm 2 mps 765 mmHg 92%
    01:00 -3°C° 0 mm 2 mps 765 mmHg 92%
    02:00 -3°C° 0 mm 2 mps 765 mmHg 92%
    03:00 -3°C° 0 mm 2 mps 765 mmHg 92%
    04:00 -1°C° 0 mm 1 mps 765 mmHg 93%
    05:00 -3°C° 0 mm 2 mps 765 mmHg 93%
    06:00 -3°C° 0 mm 2 mps 765 mmHg 93%
    07:00 -3°C° 0 mm 2 mps 765 mmHg 93%
    08:00 -3°C° 0 mm 2 mps 765 mmHg 91%
    09:00 -3°C° 0 mm 2 mps 765 mmHg 89%
    10:00 -2°C° 0 mm 2 mps 765 mmHg 87%
    11:00 -2°C° 0 mm 2 mps 765 mmHg 85%
    12:00 -2°C° 0 mm 2 mps 765 mmHg 83%
    13:00 +1°C° 0 mm 1 mps 765 mmHg 80%
    14:00 -2°C° 0 mm 2 mps 764 mmHg 83%
    15:00 -2°C° 0 mm 2 mps 764 mmHg 85%
    16:00 -4°C° 0 mm 3 mps 764 mmHg 87%
    17:00 -4°C° 0 mm 3 mps 764 mmHg 87%
    18:00 -4°C° 0 mm 3 mps 763 mmHg 87%
    19:00 -4°C° 0 mm 3 mps 763 mmHg 87%
    20:00 -4°C° 0 mm 4 mps 763 mmHg 86%
    21:00 -4°C° 0 mm 4 mps 763 mmHg 86%
    22:00 -4°C° 0 mm 4 mps 762 mmHg 85%
    23:00 -4°C° 0 mm 4 mps 762 mmHg 85%
    Show more